Find Starlink 6076

NORAD ID: 56100 Int'l Des: 2023-046 Owner: SPXS Country: US Constellation: starlink operational
LEOCIRCULAR

Live-Position

3D-Globus wird geladen...

Über Starlink 6076

Beschreibung wird geladen...

Nächste Überflüge

Passes for default location (London). Set your location on the main map for personalized predictions.

Höhenverlauf

Loading altitude history...

Zweizeiliger Elementsatz

1 56100U 23046H 26125.67810289 .00000835 00000-0 41754-4 0 9995
2 56100 43.0012 199.1800 0001851 288.4552 71.6098 15.25909698170756
Epoch: 5. Mai 2026 • Age: 15 hours

Aktueller Status

Höhe 488.9 km
Geschwindigkeit 7.62 km/s
Subsatellitenpunkt 24.39°N, 17.09°E
Startdatum 29. März 2023
Alter 3.1 years
Typ internet

Technische Details

Klassifizierung Payload
Masse 305.00 kg
Trockenmasse 290.00 kg
Gesamtmasse 305.00 kg
Länge 0.20 m
Durchmesser 2.80 m
Spannweite 9.00 m
Form Box + pan
Hersteller SPXS
Bus-Typ Starlink
Phasenstatus In Orbit
Besitzer/Staat SPXS/US

Most Searched